Hourly Weather Roundup
Issued by NWS Central Illinois

Home | Current Version | Previous Version | Text Only | Print | Product List | Glossary On
Versions: 1 2 3 4 5 6 7 8 9 10 11 12 13 14 15 16 17 18 19 20 21 22 23 24 25 26 27 28 29 30 31 32 33 34 35 36 37 38 39 40 41 42 43 44 45 46 47 48 49 50
373
NZUS43 KILX 201410
HWRILX

Area Weather Roundup
National Weather Service Lincoln IL
800 AM CST SAT JAN 20 2018

NOTE:  "FAIR" indicates few or no clouds below 12,000 feet, with
       no sigificant weather and/or obstructions to visibility.


CITY           SKY/WX    TMP DP  RH WIND       PRES   REMARKS
Bloomington    FAIR      29  27  92 S10       29.96R WCI  20
Champaign      FAIR      30  27  88 S12       29.99R WCI  20
Danville       FAIR      30  25  82 SW9       29.97R WCI  22
Decatur        FAIR      33  29  85 SW12      29.99R WCI  24
Effingham      FAIR      34  28  76 S6        30.05R WCI  29
Flora          FAIR      33  26  75 S8        30.07R WCI  27
Galesburg      FAIR      33  31  92 S9        29.92R WCI  25
Jacksonville   PTCLDY    34  29  82 S8        29.96R WCI  27
Lacon          FAIR      34  28  80 SW8       29.92R WCI  27
Lawrenceville  FAIR      26  19  74 S9        30.09R WCI  17
Litchfield     PTCLDY    31  27  84 S13       30.00R WCI  21
$$


CITY           SKY/WX    TMP DP  RH WIND       PRES   REMARKS
Lincoln        FAIR      32  30  91 SW5       29.97R WCI  27
Macomb         CLOUDY    36  32  85 SW8       29.94R WCI  29
Mattoon        FAIR      32  26  78 S12       30.01R WCI  23
Mt Carmel AP   FAIR      33  22  62 SW9       30.09R WCI  26
Olney-Noble AP FAIR      32  22  67 S8        30.08R WCI  25
Paris AP       FAIR      32  27  81 S15       30.03R WCI  21
Peoria         FAIR      30  27  88 S6        29.94R WCI  24
Pontiac        FAIR      33  31  96 SW8       29.94R WCI  25
Rantoul        FAIR      34  30  86 SW10      29.98R WCI  26
Robinson       FAIR      33  25  72 S8        30.08R WCI  26
Springfield    FAIR      35  29  78 S13       29.97R WCI  26
Taylorville    FAIR      31  27  86 S12       30.00R WCI  22
$$

...REGIONAL REPORTS...


CITY           SKY/WX    TMP DP  RH WIND       PRES   REMARKS
Chicago O`Hare MOCLDY    33  26  75 SW8       29.89R WCI  26
Kankakee       FAIR     N/A N/A N/A SW9       29.95R
Moline         FAIR      26  24  92 CALM      29.88R
Mount Sterling PTCLDY    37  33  85 SW7       29.94R WCI  32
Mount Vernon   FAIR      32  26  78 S6        30.07R WCI  26
Pittsfield     CLOUDY    38  33  81 S7        29.96R WCI  33
Quincy         CLOUDY    38  33  82 SW9       29.94R WCI  31
Rockford       FAIR      29  26  89 S5        29.90R WCI  24
$$


CITY           SKY/WX    TMP DP  RH WIND       PRES   REMARKS
Burlington     CLOUDY    33  29  85 S9        29.90R WCI  25
Cedar Rapids   FAIR      31  26  82 CALM      29.85R
Des Moines     CLOUDY    32  27  81 CALM      29.85R
Kirksville     CLOUDY    40  38  93 SW10      29.91R WCI  33
Ottumwa        CLOUDY    31  26  82 SW5       29.87R WCI  26
St Louis       CLOUDY    35  29  78 S5        29.99S WCI  31
$$


CITY           SKY/WX    TMP DP  RH WIND       PRES   REMARKS
Terre Haute    FAIR      29  21  72 S8        30.05R WCI  21
Evansville     FAIR      33  21  61 SW8       30.12R WCI  26
Indianapolis   MOCLDY    32  23  69 SW9       30.04R WCI  24
Lafayette      FAIR      31  25  78 SW6       30.00R WCI  25
Madison        MOCLDY    25  22  88 CALM      29.86R
Milwaukee      MOCLDY    35  28  75 W5        29.85R WCI  31
$$






USA.gov is the U.S. government's official web portal to all federal, state and local government web resources and services.